Stations météo

réclame
Mon MeteoGroup
Bastia, France (7790): Température de l'air & dewpoint: 12.11.2017 00:00:00 - 18.11.2017 00:00:00 (CET)Bastia, France (7790): Température de l'air 5cm: 12.11.2017 00:00:00 - 18.11.2017 00:00:00 (CET)Bastia, France (7790): Température de l'air -20cm & Température de l'air -100cm: 12.11.2017 00:00:00 - 18.11.2017 00:00:00 (CET)Bastia, France (7790): Vitesse du vent & gusts: 12.11.2017 00:00:00 - 18.11.2017 00:00:00 (CET)Bastia, France (7790): Direction du vent: 12.11.2017 00:00:00 - 18.11.2017 00:00:00 (CET)Bastia, France (7790): reduced air pressure: 12.11.2017 00:00:00 - 18.11.2017 00:00:00 (CET)Bastia, France (7790): visibility: 12.11.2017 00:00:00 - 18.11.2017 00:00:00 (CET)Bastia, France (7790): Ensoleillement: 12.11.2017 00:00:00 - 18.11.2017 00:00:00 (CET)Bastia, France (7790): Quantités de précipitations: 12.11.2017 00:00:00 - 18.11.2017 00:00:00 (CET)
Date & Time tt [°C] td [°C] tt 5cm [°C] tt -20cm [°C] tt -100cm [°C] ff [km/h] ff [knt] fx [km/h] fx [knt] dd ppp [hPa] vv [km] sd [min] rr [mm]
18.11.2017 00:00:00 9,0 7,0 - - - 8 4 - - SW - 10 - -
17.11.2017 23:00:00 9,6 6,5 6,8 17,1 17,1 8 4 14 7 WSW 1016,5 37 0 0,0
17.11.2017 22:00:00 9,0 5,9 6,8 17,1 17,1 8 4 12 7 WSW 1016,5 10 0 0,0
17.11.2017 21:00:00 9,6 6,3 7,0 17,1 17,1 8 4 11 6 WSW 1016,2 10 0 0,0
17.11.2017 20:00:00 9,6 6,5 7,2 17,1 17,1 8 4 10 5 WSW 1016,0 10 0 0,0
17.11.2017 19:00:00 10,1 7,2 6,8 17,0 17,1 4 2 10 6 - 1015,8 10 0 0,0
17.11.2017 18:00:00 11,1 7,4 7,5 16,9 17,1 5 3 8 4 WSW 1015,6 10 0 0,0
17.11.2017 17:00:00 14,0 8,2 9,5 16,9 17,1 5 3 14 7 NNW 1015,1 10 29 0,0
17.11.2017 16:00:00 15,8 7,5 17,7 16,9 17,1 11 6 22 12 N 1015,1 10 60 0,0
17.11.2017 15:00:00 16,3 8,0 19,7 16,8 17,2 16 9 30 16 N 1015,2 10 60 0,0
17.11.2017 14:00:00 16,9 8,6 21,4 16,9 17,2 16 9 22 12 N 1015,6 10 60 0,0
17.11.2017 13:00:00 16,7 9,1 22,3 16,9 17,2 13 7 20 11 N 1016,0 40 60 0,0
17.11.2017 12:00:00 16,5 8,9 21,5 17,0 17,2 13 7 21 12 N 1016,5 10 60 0,0
17.11.2017 11:00:00 16,1 9,0 21,0 17,0 17,2 15 8 20 11 NNE 1017,1 10 60 0,0
17.11.2017 10:00:00 15,6 9,3 16,7 17,0 17,2 9 5 14 8 N 1016,9 10 60 0,0
17.11.2017 09:00:00 12,0 6,3 11,5 17,1 17,2 8 4 12 6 SW 1016,9 10 60 0,0
17.11.2017 08:00:00 9,7 5,7 7,0 17,1 17,2 9 5 16 9 SW 1016,5 10 28 0,0
17.11.2017 07:00:00 8,6 5,3 7,0 17,2 17,2 0 0 16 8 N 1016,1 10 0 0,0
17.11.2017 06:00:00 9,6 5,8 7,5 17,2 17,2 11 6 19 10 WSW 1015,9 10 0 0,0
17.11.2017 05:00:00 9,3 5,7 6,8 17,2 17,2 9 5 14 8 WSW 1015,7 10 0 0,0
17.11.2017 04:00:00 9,3 5,7 6,4 17,3 17,2 8 4 11 6 WSW 1016,0 10 0 0,0
17.11.2017 03:00:00 10,0 6,2 6,2 17,4 17,2 5 3 13 7 WSW 1016,2 10 0 0,0
17.11.2017 02:00:00 11,0 6,3 6,1 17,4 17,2 11 6 18 10 WSW 1016,5 10 0 0,0
17.11.2017 01:00:00 10,0 5,8 5,7 17,5 17,2 8 4 11 6 SSW 1016,6 10 0 0,0
17.11.2017 00:00:00 9,5 5,5 5,0 17,5 17,2 5 3 16 8 SW 1016,8 10 0 0,0
16.11.2017 23:00:00 10,5 5,7 4,8 17,5 17,2 4 2 10 5 - 1017,1 10 0 0,0
16.11.2017 22:00:00 10,9 5,6 5,1 17,6 17,3 5 3 9 5 W 1017,0 10 0 0,0
16.11.2017 21:00:00 11,6 5,2 6,7 17,5 17,3 5 3 12 6 W 1016,8 10 0 0,0
16.11.2017 20:00:00 11,6 5,7 6,1 17,5 17,3 5 3 14 8 - 1016,5 10 0 0,0
16.11.2017 19:00:00 12,3 6,1 7,4 17,5 17,3 13 7 18 10 N 1016,3 10 0 0,0
16.11.2017 18:00:00 12,7 6,9 7,2 17,3 17,3 4 2 13 7 - 1015,8 10 0 0,0
16.11.2017 17:00:00 13,7 6,8 11,4 17,3 17,3 9 5 19 10 NNW 1015,9 10 30 0,0
16.11.2017 16:00:00 16,2 9,4 17,8 17,3 17,3 15 8 18 10 NNE 1016,0 10 60 0,0
16.11.2017 15:00:00 16,4 9,6 19,9 17,1 17,3 15 8 25 14 N 1016,1 10 60 0,0
16.11.2017 14:00:00 16,4 8,6 20,2 17,1 17,3 16 9 26 14 N 1016,4 10 60 0,0
16.11.2017 13:00:00 16,2 7,9 21,4 17,1 17,3 13 7 21 12 NNE 1017,1 10 60 0,0
16.11.2017 12:00:00 15,8 7,8 16,5 16,9 17,4 16 9 31 17 NNE 1018,0 10 57 0,0
16.11.2017 11:00:00 15,3 7,6 16,8 17,0 17,4 16 9 29 16 N 1018,4 10 52 0,0
16.11.2017 10:00:00 15,1 7,9 14,4 17,0 17,4 15 8 23 12 N 1018,1 10 44 0,0
16.11.2017 09:00:00 13,8 7,3 12,3 17,0 17,4 13 7 25 13 NW 1018,2 10 18 0,0
16.11.2017 08:00:00 12,8 7,2 10,8 16,9 17,5 11 6 18 10 NW 1018,1 10 30 0,0
16.11.2017 07:00:00 11,9 7,6 10,1 16,9 17,4 8 4 16 8 WNW 1018,0 10 0 0,0
16.11.2017 06:00:00 11,8 7,1 10,8 16,8 17,4 9 5 22 12 NNW 1017,7 10 0 0,0
16.11.2017 05:00:00 11,6 7,7 8,0 16,6 17,4 8 4 12 7 NW 1017,5 10 0 0,0
16.11.2017 04:00:00 10,5 6,8 8,3 16,4 17,4 5 3 18 10 NW 1017,6 25 0 0,0
16.11.2017 03:00:00 12,2 7,5 10,0 16,5 17,4 11 6 26 14 NNE 1017,7 10 0 0,0
16.11.2017 02:00:00 12,1 7,2 10,0 16,4 17,4 15 8 30 16 NNE 1017,8 10 0 0,0
16.11.2017 01:00:00 12,3 7,6 10,2 16,5 17,5 15 8 23 12 NNE 1017,9 10 0 0,0
16.11.2017 00:00:00 11,5 8,9 10,1 16,4 17,5 13 7 19 11 NNW 1018,0 10 0 0,2
15.11.2017 23:00:00 11,4 8,8 10,1 16,4 17,5 13 7 28 15 N 1018,3 10 0 0,0
15.11.2017 22:00:00 11,7 8,7 10,4 16,4 17,5 16 9 28 15 NNE 1018,3 10 0 0,2
15.11.2017 21:00:00 11,6 9,3 10,5 16,4 17,5 13 7 21 11 NNW 1017,7 10 0 0,4
15.11.2017 20:00:00 11,7 9,6 10,6 16,4 17,5 11 6 17 9 NW 1017,4 10 0 0,2
15.11.2017 19:00:00 12,0 9,0 10,6 16,4 17,5 11 6 21 11 NNW 1017,2 10 0 0,2
15.11.2017 18:00:00 12,9 8,8 11,5 16,4 17,5 8 4 20 11 NNE 1016,8 10 0 0,2
15.11.2017 17:00:00 13,7 7,5 13,1 16,3 17,5 18 10 30 16 N 1016,3 10 0 0,0
15.11.2017 16:00:00 14,0 7,3 13,7 16,3 17,6 21 11 35 19 N 1015,9 10 0 0,0
15.11.2017 15:00:00 14,2 7,5 14,1 16,2 17,6 16 9 31 17 N 1015,7 10 0 0,0
15.11.2017 14:00:00 14,0 7,5 14,3 16,2 17,5 21 11 32 17 N 1015,6 10 0 0,0
15.11.2017 13:00:00 13,9 7,2 14,6 16,3 17,6 21 11 34 18 NNE 1015,9 10 1 0,0
15.11.2017 12:00:00 14,0 7,3 13,4 16,3 17,6 24 13 40 22 N 1016,0 10 7 0,0
15.11.2017 11:00:00 13,7 7,2 12,1 16,3 17,6 24 13 46 25 NNE 1016,5 10 0 0,0
15.11.2017 10:00:00 13,5 6,6 12,4 16,3 17,6 21 11 42 23 N 1016,2 10 0 0,0
15.11.2017 09:00:00 13,3 6,6 11,4 16,4 17,7 21 11 32 17 N 1015,6 10 0 0,0
15.11.2017 08:00:00 12,4 5,1 11,1 16,4 17,7 5 3 21 12 NNW 1015,1 10 0 0,0
15.11.2017 07:00:00 11,9 4,4 11,0 16,4 17,7 8 4 18 10 N 1014,6 10 0 0,0
15.11.2017 06:00:00 12,1 3,8 10,8 16,4 17,7 13 7 18 10 NW 1013,9 10 0 0,0
15.11.2017 05:00:00 11,8 3,8 10,8 16,4 17,7 9 5 31 17 NW 1013,6 10 0 0,0
15.11.2017 04:00:00 12,7 3,9 11,9 16,5 17,7 21 11 42 23 NNE 1014,0 10 0 0,0
15.11.2017 03:00:00 12,9 3,8 12,2 16,4 17,7 26 14 45 24 NNE 1013,9 10 0 0,0
15.11.2017 02:00:00 13,3 3,1 12,3 16,5 17,7 21 11 49 26 NNE 1013,8 10 0 0,0
15.11.2017 01:00:00 13,1 3,7 12,4 16,5 17,7 34 18 58 31 NE 1014,2 10 0 0,0
15.11.2017 00:00:00 13,3 3,4 12,2 16,5 17,8 39 21 53 29 NE 1014,8 10 0 0,0
14.11.2017 23:00:00 13,2 2,1 10,6 16,5 17,8 21 11 28 15 NNE 1014,9 10 0 0,0
14.11.2017 22:00:00 12,6 4,0 10,7 16,5 17,8 15 8 29 15 N 1014,2 20 0 0,0
14.11.2017 21:00:00 13,0 3,9 12,1 16,6 17,8 18 10 36 20 NNE 1014,4 10 0 0,0
14.11.2017 20:00:00 13,1 3,2 11,7 16,6 17,8 26 14 42 23 NNE 1014,5 10 0 0,0
14.11.2017 19:00:00 13,0 2,8 11,6 16,6 17,8 24 13 41 22 NNE 1014,3 10 0 0,0
14.11.2017 18:00:00 12,7 3,6 11,1 16,6 17,8 26 14 41 22 NE 1014,0 10 0 0,0
14.11.2017 17:00:00 12,6 4,3 11,6 16,6 17,8 24 13 48 26 NE 1013,3 10 0 0,0
14.11.2017 16:00:00 13,0 3,6 12,4 16,7 17,9 34 18 56 30 NE 1013,2 10 0 0,0
14.11.2017 15:00:00 12,8 4,2 12,4 16,6 17,9 35 19 56 31 NE 1013,0 10 0 0,0
14.11.2017 14:00:00 12,5 4,7 12,3 16,6 17,9 37 20 57 31 NE 1013,2 10 0 0,0
14.11.2017 13:00:00 12,5 4,7 11,6 16,6 17,9 41 22 66 36 NE 1013,1 10 0 0,0
14.11.2017 12:00:00 12,0 4,9 9,7 16,8 17,9 41 22 66 36 NNE 1012,7 10 0 0,2
14.11.2017 11:00:00 10,8 6,0 9,3 16,8 17,9 39 21 61 33 NNE 1012,6 10 0 0,2
14.11.2017 10:00:00 11,5 4,7 8,9 16,8 17,9 35 19 60 32 NNE 1012,3 10 0 0,2
14.11.2017 09:00:00 10,4 5,0 9,0 16,8 17,9 37 20 61 33 NE 1012,1 20 0 0,2
14.11.2017 08:00:00 11,2 3,5 10,2 16,9 17,9 35 19 63 34 NNE 1010,9 10 0 0,0
14.11.2017 07:00:00 11,1 3,6 8,4 17,0 17,9 41 22 61 33 NNE 1009,8 10 0 0,2
14.11.2017 06:00:00 10,2 4,3 9,5 17,0 17,9 42 23 64 35 NNE 1009,3 10 0 0,0
14.11.2017 05:00:00 11,5 3,0 10,6 17,1 17,9 34 18 61 33 NNE 1008,2 10 0 0,0
14.11.2017 04:00:00 11,5 3,5 10,4 17,1 17,9 39 21 65 35 NE 1007,8 10 0 0,0
14.11.2017 03:00:00 11,1 3,4 10,3 17,2 17,9 41 22 64 35 NNE 1007,5 10 0 0,0
14.11.2017 02:00:00 11,0 4,9 10,1 17,3 18,0 39 21 61 33 NNE 1006,7 10 0 0,0
14.11.2017 01:00:00 10,9 4,8 9,8 17,3 18,0 37 20 63 34 NNE 1005,7 10 0 0,0
14.11.2017 00:00:00 10,7 3,9 9,8 17,4 18,0 44 24 77 42 NNE 1005,1 10 0 0,0
13.11.2017 23:00:00 10,8 4,0 9,4 17,5 18,0 48 26 71 38 NNE 1004,3 10 0 0,0
13.11.2017 22:00:00 10,7 3,2 7,9 17,5 18,0 48 26 72 39 NNE 1004,0 10 0 0,0
13.11.2017 21:00:00 9,6 4,6 6,8 17,6 18,0 28 15 55 30 NNE 1003,3 10 0 2,1
13.11.2017 20:00:00 7,8 5,4 6,8 17,6 18,0 9 5 40 21 N 1002,9 8 0 3,2
13.11.2017 19:00:00 8,0 4,9 5,7 17,7 18,0 29 16 65 35 N 1002,7 10 0 1,6
13.11.2017 18:00:00 6,8 4,3 5,4 17,7 18,0 24 13 53 28 NNW 1001,6 10 0 4,7
13.11.2017 17:00:00 10,3 3,1 8,7 17,8 18,0 24 13 36 19 N 999,9 10 0 0,0
13.11.2017 16:00:00 9,4 5,8 7,9 17,8 18,0 8 4 24 13 WNW 999,3 12 0 0,0
13.11.2017 15:00:00 8,5 6,1 7,6 17,8 18,0 5 3 31 17 - 999,3 10 0 1,0
13.11.2017 14:00:00 8,7 4,1 8,7 17,8 18,0 31 17 66 35 N 999,0 10 1 0,0
13.11.2017 13:00:00 10,8 4,5 6,6 17,9 18,0 42 23 64 34 N 997,7 10 2 1,0
13.11.2017 12:00:00 11,9 3,6 11,2 17,9 18,1 35 19 68 37 N 997,8 10 18 0,0
13.11.2017 11:00:00 15,0 -1,6 13,3 18,0 18,0 34 18 79 43 NNW 996,9 10 34 0,0
13.11.2017 10:00:00 13,5 -2,9 12,3 18,1 18,1 39 21 80 43 NW 995,8 10 35 0,0
13.11.2017 09:00:00 12,3 -1,3 11,2 18,1 18,1 35 19 71 38 NW 995,9 10 49 0,0
13.11.2017 08:00:00 12,4 -2,3 6,1 18,1 18,1 34 18 59 32 NNW 995,6 30 27 0,0
13.11.2017 07:00:00 7,4 5,2 4,3 18,2 18,1 5 3 33 18 WSW 995,8 10 0 2,4
13.11.2017 06:00:00 8,7 3,9 6,6 18,2 18,1 26 14 65 35 NW 996,0 10 0 0,8
13.11.2017 05:00:00 11,7 -0,2 10,6 18,2 18,1 41 22 81 44 WNW 994,5 10 0 0,0
13.11.2017 04:00:00 14,7 -0,2 11,1 18,4 18,1 15 8 56 31 - 993,8 10 0 0,0
13.11.2017 03:00:00 15,5 3,6 11,5 18,3 18,1 18 10 46 25 WSW 993,0 10 0 0,0
13.11.2017 02:00:00 13,7 9,9 11,7 18,4 18,1 11 6 39 21 SW 995,2 10 0 0,6
13.11.2017 01:00:00 13,5 9,0 10,6 18,4 18,1 5 3 19 10 - 996,2 10 0 0,0
13.11.2017 00:00:00 12,0 8,3 9,3 18,4 18,1 4 2 22 12 - 997,8 10 0 0,0
12.11.2017 23:00:00 12,6 7,5 10,3 18,4 18,1 9 5 19 10 SSW 998,7 10 0 0,0
12.11.2017 22:00:00 12,3 8,0 11,1 18,2 18,1 13 7 23 13 SW 999,2 10 0 0,0
12.11.2017 21:00:00 13,7 9,5 11,7 18,3 18,1 9 5 16 9 SSW 1000,7 10 0 0,0
12.11.2017 20:00:00 13,4 10,6 11,0 17,9 18,1 4 2 14 8 - 1001,9 10 0 0,0
12.11.2017 19:00:00 14,4 11,2 11,2 17,8 18,1 4 2 11 6 - 1002,7 10 0 0,0
12.11.2017 18:00:00 15,0 11,8 12,9 17,9 18,1 8 4 13 7 S 1003,1 10 0 0,0
12.11.2017 17:00:00 16,6 12,1 16,0 17,9 18,2 0 0 9 5 N 1004,2 10 23 0,0
12.11.2017 16:00:00 17,0 12,3 17,4 18,2 18,2 8 4 10 6 SE 1004,6 10 7 0,0
12.11.2017 15:00:00 18,5 11,6 23,2 19,6 18,2 5 3 16 9 NE 1005,4 10 60 0,0
12.11.2017 14:00:00 17,9 12,3 19,7 19,2 18,2 9 5 16 9 NNE 1006,1 10 41 0,0
12.11.2017 13:00:00 18,5 12,5 19,3 19,1 18,2 9 5 16 9 NNE 1007,2 10 39 0,0
12.11.2017 12:00:00 17,6 12,7 19,3 18,9 18,2 8 4 17 9 N 1008,4 10 34 0,0
12.11.2017 11:00:00 18,2 12,9 18,3 18,9 18,2 9 5 18 10 N 1009,5 10 33 0,0
12.11.2017 10:00:00 15,6 10,8 16,0 18,4 18,2 8 4 14 8 SW 1009,7 10 53 0,0
12.11.2017 09:00:00 12,5 9,0 11,1 18,4 18,2 9 5 13 7 SW 1010,3 10 25 0,0
12.11.2017 08:00:00 9,9 8,3 7,8 18,3 18,3 9 5 13 7 SW 1010,2 10 27 0,0
12.11.2017 07:00:00 8,8 7,1 7,7 18,5 18,2 5 3 14 8 SW 1010,2 10 0 0,0
12.11.2017 06:00:00 9,7 7,8 7,8 18,5 18,2 9 5 16 9 WSW 1010,4 10 0 0,0
12.11.2017 05:00:00 9,4 7,8 6,8 18,3 18,3 9 5 14 8 WSW 1010,7 10 0 0,0
12.11.2017 04:00:00 9,3 7,4 7,7 18,4 18,3 4 2 10 5 - 1010,7 10 0 0,0
12.11.2017 03:00:00 9,3 7,7 8,0 18,4 18,3 9 5 11 6 WSW 1011,1 10 0 0,0
12.11.2017 02:00:00 9,7 8,0 8,6 18,4 18,3 8 4 11 6 WSW 1012,1 10 0 0,0
12.11.2017 01:00:00 10,0 8,1 6,0 18,6 18,3 5 3 10 5 WSW 1012,7 10 0 0,0
12.11.2017 00:00:00 9,2 7,3 7,0 18,6 18,3 4 2 11 6 SSW 1013,3 10 0 0,0

tt = Température de l'air
td = dewpoint
tt 5cm = Température de l'air 5cm
tt -20cm = Température de l'air -20cm
tt -100cm = Température de l'air -100cm
ff = Vitesse du vent
fx = gusts
dd = Direction du vent
ppp = reduced air pressure
vv = visibility
sd = Ensoleillement
rr = Quantités de précipitations

stations d'obs. à proximité